Weather in Plastun

Russia / Primorsky Krai     44°45′35″N   136°16′56″E
temp.,
°C
wind,
m/s
gust,
m/s
humid.,
%
clouds,
%
prec.,
mm/h
press.,
hPa
HPBL,
m
7 may, fri
fri701:00+9nw1168100 0.0 100513
04:00+8sw1173100 0.0 100414
07:00+9ssw12730 0.0 100342
10:00+15s385381 0.0 1002564
13:00+17ssw51144100 0.0 10001056
16:00+16s4105198 0.0 998634
19:00+9sse2583100 0.0 998230
22:00+5ene1297100 0.0 99684
8 may, sat
sat801:00+5ene2398100 2.4 994243
04:00+5ene2598100 2.5 992317
07:00+5nne2397100 0.8 993280
10:00+7se128999 0.8 996340
13:00+8se238475 0.0 998398
16:00+9ese2278100 0.0 998382
19:00+6ene2392100 0.0 999250
22:00+5ene2695100 0.0 1000409
9 may, sun
sun901:00+4ne31096100 0.1 999506
04:00+4ene51396100 0.3 996623
07:00+3ne41298100 8.3 994622
10:00+4nne41196100 21.6 992652
13:00+5ne4994100 0.9 993653
16:00+5w1394100 2.4 994205
19:00+4wsw1296100 3.9 997286
22:00+4sw1296100 4.3 100070
10 may, mon
mon1001:00+4wsw1197100 0.1 100034
04:00+4wnw239892 1.8 998234
07:00+4wsw1193100 0.1 1000146
10:00+7wsw1481100 0.1 1001741
13:00+7wnw2686100 0.1 1002677
16:00+6ne3593100 0.6 1005602
19:00+3sse1198100 1.1 1007138
22:00+5w1197100 1.1 100974
11 may, tue
tue1101:00+5w1294100 0.1 101147
04:00+4wnw219341 0.1 101123
07:00+5nw1290100 0.0 101368
10:00+7nnw238588 0.0 1014638
13:00+10ne127594 0.1 1015867
16:00+6ese2288100 0.3 1017367
19:00+5ese1291100 0.0 1018296
22:00+5ese1196100 0.1 102084